Flag for USA

Past Weather in Novato, California, USA — Yesterday and Last 2 Weeks

Now
86 °F

Sunny.


Feels Like: 85 °F
Forecast: 78 / 53 °F
Wind: 13 mph from Southwest

Location: Napa County Airport

Current Time: Jul 12, 2020 at 5:11:50 pm

Latest Report: Jul 12, 2020 at 3:54 pm


Visibility: 10 mi

Pressure: 29.80 "Hg

Humidity: 36%

Dew Point: 56 °F

Location of NovatoLocation

Past Weather in Novato — Graph

°F

Novato Temperature Yesterday

Maximum temperature yesterday: 88 °F (at 2:54 pm)
Minimum temperature yesterday: 53 °F (at 5:54 am)
Average temperature yesterday: 70 °F

High & Low Weather Summary for the Past Weeks

 TemperatureHumidityPressure
High88 °F (Jul 11, 2:54 pm)93% (Jun 29, 6:54 am)30.03 "Hg (Jun 29, 6:54 am)
Low50 °F (Jul 4, 5:54 am)31% (Jul 5, 3:54 pm)29.61 "Hg (Jun 28, 4:54 pm)
Average66 °F66%29.86 "Hg
* Reported Jun 27 3:54 pm — Jul 12 3:54 pm, Novato. Weather by CustomWeather, © 2020

Note: Actual official high and low records may vary slightly from our data, if they occured in-between our weather recording intervals... More about our weather records

Novato Weather History for the Previous 24 Hours

Scroll right to see more
 ConditionsComfort  
Time TempWeatherWind HumidityBarometerVisibility
3:54 pm
Sun, Jul 12
86 °FSunny.13 mph36%29.80 "Hg10 mi
2:54 pm87 °FSunny.13 mph35%29.82 "Hg10 mi
1:54 pm86 °FSunny.10 mph35%29.84 "Hg10 mi
12:54 pm82 °FSunny.9 mph40%29.86 "Hg10 mi
11:54 am77 °FSunny.7 mph44%29.89 "Hg10 mi
10:54 am72 °FSunny.8 mph57%29.90 "Hg10 mi
9:54 am68 °FSunny.6 mph63%29.91 "Hg10 mi
8:54 am67 °FSunny.5 mph63%29.92 "Hg10 mi
7:54 am63 °FSunny.No wind73%29.92 "Hg10 mi
6:54 am54 °FSunny.No wind90%29.92 "Hg10 mi
5:54 am51 °FClear.No wind89%29.91 "Hg10 mi
4:54 am51 °FClear.No wind89%29.90 "Hg10 mi
3:54 am54 °FClear.No wind83%29.90 "Hg10 mi
2:54 am58 °FClear.5 mph84%29.91 "Hg10 mi
1:54 am61 °FClear.No wind75%29.92 "Hg10 mi
12:54 am62 °FClear.6 mph78%29.93 "Hg10 mi
11:54 pm
Sat, Jul 11
63 °FClear.6 mph78%29.93 "Hg10 mi
10:54 pm65 °FClear.10 mph73%29.93 "Hg10 mi
9:54 pm66 °FClear.8 mph63%29.92 "Hg10 mi
8:54 pm69 °FClear.8 mph59%29.91 "Hg10 mi
7:54 pm75 °FSunny.13 mph50%29.90 "Hg10 mi
6:54 pm79 °FSunny.13 mph45%29.90 "Hg10 mi
5:54 pm83 °FSunny.12 mph41%29.90 "Hg10 mi
Weather by CustomWeather, © 2020

See weather overview